CZ-3C DEB, 40855

Orbit data source: Space-Track

CZ-3C DEB, 40855 is space debris in HEO originally from a launch on Fri, 24 Feb 2012 UTC launched from the Xichang Space Center, China (XSC). Debris objects in space refer to the collection of defunct objects orbiting the Earth. Examples of debris include non-operational satellites, rocket bodies, and fragments generated from explosions, collisions, or faulty payload assembly.

Not visible in the next 10 days
Identifier
40855, 2012-008V
Orbit
HEO
Country
Flag of CNCN / PRC
Related business
Manufacturer
CALT
Mission
Spacecraft
Bus & Motor
Unknown
Mass
Unknown
Launch date (UTC)
2012-02-24 (14 years ago)
Launch vehicle
Unknown
Launch site
Xichang Space Center, China (XSC)
Object type
Payload
Rocket body
Debris
Shape & HBR
Unknown shape, 0.2 m
Radar Cross Section
Medium (>0.1 m² and <1 m²)

Expand to show TLE details & history
Last TLE update: 3 days ago

TLE from 3 days ago
0 CZ-3C DEB
1 40855U 12008V   25291.69703742 -.00000211  00000-0 -54088-2 0  9993
2 40855  22.6228  59.9781 7053409  66.4604 356.6214  2.32118808 92730
Epoch: 2025-10-18T16:43Z
TLE epoch observation values (Epoch: 2025-10-18T16:43:44.033Z)
Latitude
14.14742°
Longitude
178.5461°
Altitude
1,086.581 km
Speed
9.501 km/s
True Right ascension
06h 27m 36s
True Declination
14° 04' 11"
Sunlit
Object was in daylight at epoch
Visualization orbit readout
Latitude
Unknown
Longitude
Unknown
Altitude
Unknown
Speed
Unknown
Apparent Right ascension
Unknown
Apparent Declination
Unknown
Sunlit
N/A
Visualization observer readout
Local Sidereal Time
18:00:14
Azimuth
Unknown
Elevation
Unknown
Doppler factor
Unknown
Orbital elements
Apogee altitude
34,719.015 km
Perigee altitude
722.877 km
Semi-major axis
24,099.083 km
Eccentricity
0.70534
Inclination
22.6228°
RAAN
59.9781°
Arg. of periapsis
66.4604°
True anomaly
333.24453°
Mean anomaly
356.6214°
Eccentric anomaly
348.70849°
Mean motion
0.58015 °/min
Orbital period
620.53 mins
BSTAR
-0.0054088
Loading maneuver chart data...
Computing Atmospheric mass density...
Loading historical data...
Loading historical data...
Loading historical data...
Loading historical data...
Loading historical data...
Loading historical data...
Loading historical data...

Documentation

Showing up to 5 results
|